This demonstration page uses our WeatherBlox Daily Observations layout. Learn more.

41.55636, -103.73856

Hourly Observations for August 20, 2015

Temp ( °F °C ) Dew Point ( °F °C ) Humidity (%) Winds ( mph kmh ) Pressure ( in mb ) Visibility ( mi km ) Precip ( " mm )
12:53 am 00:53 Clear 50 10 46 7.8 86 86 E 6 9 29.88 1012 10 16.0934 0 0
1:53 am 01:53 Clear 50 10 45 7.2 83 83 E 6 9 29.86 1011 10 16.0934 0 0
2:53 am 02:53 Cloudy 52 11.1 46 7.8 80 80 E 8 13 29.83 1010 10 16.0934 0 0
3:53 am 03:53 Partly Cloudy 51 10.6 46 7.8 83 83 E 8 13 29.81 1010 10 16.0934 0 0
4:53 am 04:53 Clear 50 10 45 7.2 83 83 E 8 13 29.8 1009 10 16.0934 0 0
5:53 am 05:53 Clear 48 8.9 44 6.7 86 86 ESE 7 11 29.8 1009 10 16.0934 0 0
6:53 am 06:53 Sunny 49 9.4 45 7.2 86 86 Calm 29.82 1010 10 16.0934 0 0
7:53 am 07:53 Sunny 54 12.2 47 8.3 77 77 NW 7 11 29.83 1010 10 16.0934 0 0
8:53 am 08:53 Sunny 57 13.9 48 8.9 72 72 WNW 12 19 29.84 1010 10 16.0934 0 0
9:53 am 09:53 Sunny 64 17.8 50 10 60 60 W 10 17 29.83 1010 10 16.0934 0 0
10:53 am 10:53 Sunny 69 20.6 49 9.4 49 49 W 9 15 29.84 1011 10 16.0934 0 0
11:53 am 11:53 Sunny 75 23.9 49 9.4 40 40 WNW 9 15 29.82 1010 10 16.0934 0 0
12:53 pm 12:53 Sunny 79 26.1 47 8.3 32 32 WNW 7 11 29.8 1009 10 16.0934 0 0
1:53 pm 13:53 Sunny 81 27.2 44 6.7 27 27 SSW 3 6 29.79 1009 10 16.0934 0 0
2:53 pm 14:53 Sunny 83 28.3 44 6.7 25 25 VRB 6 9 29.77 1008 10 16.0934 0 0
3:53 pm 15:53 Sunny 84 28.9 45 7.2 25 25 VRB 3 6 29.76 1008 10 16.0934 0 0
4:53 pm 16:53 Sunny 84 28.9 45 7.2 25 25 Calm 29.75 1007 10 16.0934 0 0
5:53 pm 17:53 Sunny 81 27.2 49 9.4 33 33 SSE 7 11 29.76 1008 10 16.0934 0 0
6:53 pm 18:53 Sunny 78 25.6 52 11.1 40 40 SSE 6 9 29.76 1008 10 16.0934 0 0
7:53 pm 19:53 Clear 67 19.4 59 15 76 76 E 8 13 29.78 1009 10 16.0934 0 0
8:53 pm 20:53 Clear 65 18.3 55 12.8 70 70 ESE 5 7 29.81 1009 10 16.0934 0 0
9:53 pm 21:53 Clear 61 16.1 53 11.7 75 75 E 6 9 29.81 1009 10 16.0934 0 0
10:53 pm 22:53 Clear 59 15 52 11.1 78 78 ESE 7 11 29.81 1009 10 16.0934 0 0
11:53 pm 23:53 Clear 58 14.4 51 10.6 78 78 E 5 7 29.79 1009 10 16.0934 0 0

Powered by AerisWeather